Regional Weather Roundup
Issued by NWS

Home | Current Version | Previous Version | Text Only | Print | Product List | Glossary On
Versions: 1 2 3 4 5 6 7 8 9 10 11 12 13 14 15 16 17 18 19 20 21 22 23 24 25 26 27 28 29 30 31 32 33 34 35 36 37 38 39 40 41 42 43 44 45 46 47 48 49 50
000
ASUS46 KSEW 260710
RWRWA

WASHINGTON REGIONAL WEATHER ROUNDUP
NATIONAL WEATHER SERVICE SEATTLE WA
1200 AM PDT MON JUN 26 2017

NOTE:"FAIR" INDICATES FEW OR NO CLOUDS BELOW 12,000 FEET WITH NO
SIGNIFICANT WEATHER AND/OR OBSTRUCTIONS TO VISIBILITY.

WAZ507-509-555>559-260800-
SEATTLE, TACOMA, EVERETT, AND VICINITY

CITY           SKY/WX    TMP DP  RH WIND       PRES   REMARKS
EVERETT        MOCLDY    70  49  47 NE5       29.89S
BOEING FIELD   MOCLDY    73  54  51 NW5       29.89R
RENTON         MOCLDY    73  56  54 S7        29.88R
SEATAC AIRPORT MOCLDY    67  56  67 SW8       29.91R
JBLM-MCCHORD   MOCLDY    65  58  78 NW7       29.92R
PUYALLUP       FAIR      64  57  77 CALM      29.91S
BREMERTON      CLOUDY    61  56  83 SW10      29.92R
JBLM-FT LEWIS  MOCLDY    64  59  85 W9        29.92R
TACOMA NARROWS MOCLDY    62  56  80 W9        29.92R
$$

WAZ001-503-506-510-514-515-260800-
NORTH INTERIOR

CITY           SKY/WX    TMP DP  RH WIND       PRES   REMARKS
BELLINGHAM     MOCLDY    64  54  69 S10G22    29.83R
FRIDAY HARBOR  CLOUDY    60  52  74 S6        29.86R
EASTSOUND      MOCLDY    63  52  67 SE6G12    29.81F
PORT ANGELES   MOCLDY    59  49  69 NW7       29.87F
EDIZ HOOK      FAIR      56  48  74 W20G25    29.86S
PORT TOWNSEND    N/A     61  54  77 CALM      29.88R
NAS WHIDBEY    CLOUDY    60  47  61 SW8       29.91S
ARLINGTON      MOCLDY    67  51  56 NE6       29.88F
BURLINGTON     CLEAR     63  52  67 SE6       29.87S
$$

WAZ020-022-039-040-504-511-512-260800-
SOUTHWEST INTERIOR

CITY           SKY/WX    TMP DP  RH WIND       PRES   REMARKS
SHELTON        NOT AVBL
OLYMPIA        PTCLDY    60  55  83 S5        29.93R
CHEHALIS       FAIR      61  57  88 VRB3      29.94S
KELSO          CLOUDY    60  56  86 NW9       29.98R
VANCOUVER      MOCLDY    67  57  70 N5        29.95R
SCAPPOOSE, OR  MOCLDY    62  56  80 N6        29.93R
PORTLAND, OR   MOCLDY    68  55  63 CALM      29.95R
$$

WAZ021-516-517-260800-
WASHINGTON COAST

CITY           SKY/WX    TMP DP  RH WIND       PRES   REMARKS
FORKS          CLOUDY    56  51  84 W5        29.93R
HOQUIAM        MOCLDY    59  57  93 SW14      29.98R FOG
ASTORIA, OR    CLOUDY    57  53  86 SW8       29.99S
$$

WAZ019-023-024-040-567>569-260800-
CASCADE MOUNTAINS AND COLUMBIA GORGE

CITY           SKY/WX    TMP DP  RH WIND       PRES   REMARKS
STAMPEDE PASS  MOCLDY    68  45  43 VRB3      30.07R
TROUTDALE, OR  MOCLDY    70  57  63 E6        29.94R
HOOD RIVER, OR CLOUDY    79  55  44 W8G20     29.86R
THE DALLES, OR CLOUDY    84  58  40 NW13G18   29.79S
$$

WAZ026-027-041>044-520-521-260800-
EAST SLOPES

CITY           SKY/WX    TMP DP  RH WIND       PRES   REMARKS
OMAK           PTCLDY    72  47  40 W7        29.86R
WENATCHEE      MOCLDY    78  45  30 CALM      29.85R
ELLENSBURG     MOCLDY    69  49  48 CALM      29.89S
YAKIMA         PTCLDY    69  53  56 W6        29.85S
SUNNYSIDE ARPT PTSUNNY   65  58  80 CALM      29.82S
YAKIMA TC      FAIR      71  42  35 S6        29.84F
$$

WAZ028-034-035-260800-
COLUMBIA BASIN

CITY           SKY/WX    TMP DP  RH WIND       PRES   REMARKS
EPHRATA        PTCLDY    76  38  25 NW7       29.83S
MOSES LAKE     PTCLDY    70  51  51 NE3       29.83S
PASCO          MOCLDY    71  59  65 W3        29.79R
RICHLAND ARPT  PTSUNNY   74  52  47 CALM      29.78R
HERMISTON, OR  MOCLDY    79  48  33 SW7       29.80R
$$

WAZ036>038-260800-
NORTHEAST WASHINGTON

CITY           SKY/WX    TMP DP  RH WIND       PRES   REMARKS
SPOKANE GEIGER MOCLDY    70  49  47 W5        29.92S
SPOKANE FELTS  MOCLDY    67  50  54 CALM      29.90S
FAIRCHILD AFB  CLEAR     67  50  53 CALM      29.92S
COEURDALENE,ID PTCLDY    67  57  70 SE6       29.92F
DEER PARK      MOCLDY    59  52  77 NW5       29.92R
$$

WAZ029>033-260800-
SOUTHEAST WASHINGTON

CITY           SKY/WX    TMP DP  RH WIND       PRES   REMARKS
PULLMAN        PTCLDY    70  47  43 CALM      29.94S
LEWISTON, ID   PTCLDY    73  49  42 S5        29.85F
WALLA WALLA    MOCLDY    78  55  44 SE6       29.81F
PENDLETON, OR  PTCLDY    69  54  58 NE5       29.84R
$$



USA.gov is the U.S. government's official web portal to all federal, state and local government web resources and services.